EW0446 Weather Reports


time (UTC)temp
F
wind
direction
speed
knots
gust
knots
rain 1hr
in
rain 24hr
in
rain mn
in
humidity
%
barometer
mb
20260906174520 89 174 0.9 2.6 0.00 0.00 0.00 69 1012.4
20260906173017 88 174 2.6 3.5 0.00 0.00 0.00 68 1012.8
20260906171517 88 177 2.6 5.2 0.00 0.00 0.00 67 1012.8
20260906170016 89 162 0.9 6.1 0.00 0.00 0.00 68 1013.1
20260906164516 89 168 3.5 6.1 0.00 0.00 0.00 66 1013.3
20260906163012 88 142 2.6 5.2 0.00 0.00 0.00 69 1013.5
20260906161515 87 121 3.5 6.1 0.00 0.00 0.00 70 1013.5
20260906160007 87 172 2.6 6.1 0.00 0.00 0.00 71 1013.4
20260906154505 86 137 0.9 4.3 0.00 0.00 0.00 73 1013.4
20260906153006 85 123 2.6 5.2 0.00 0.00 0.00 72 1013.4
20260906151502 85 122 0.9 3.5 0.00 0.00 0.00 76 1013.3
20260906150058 84 127 1.7 3.5 0.00 0.00 0.00 76 1013.2
20260906144555 83 123 0.9 6.1 0.00 0.00 0.00 77 1013.1
20260906143056 83 94 2.6 5.2 0.00 0.00 0.00 77 1013.2
20260906141551 82 131 2.6 4.3 0.00 0.00 0.00 79 1013.4
20260906140048 80 96 1.7 4.3 0.00 0.00 0.00 82 1013.4
20260906134543 78 131 1.7 4.3 0.00 0.00 0.00 84 1013.4
20260906133038 75 133 1.7 3.5 0.00 0.00 0.00 84 1013.2
20260906131543 74 118 2.6 4.3 0.00 0.00 0.00 84 1013.2
20260906130036 74 95 0.0 2.6 0.00 0.00 0.00 83 1013.1
20260906124532 72 93 0.0 1.7 0.00 0.00 0.00 83 1013.0
20260906123033 72 92 0.9 1.7 0.00 0.00 0.00 84 1012.8
20260906121531 71 87 0.0 2.6 0.00 0.00 0.00 83 1012.6
20260906120027 71 87 0.0 0.0 0.00 0.00 0.00 84 1012.3
20260906114525 71 87 0.0 0.0 0.00 0.00 0.00 84 1012.1
20260906113024 71 87 0.0 0.0 0.00 0.00 0.00 84 1012.1
20260906111524 72 87 0.0 0.0 0.00 0.00 0.00 83 1012.1
20260906110023 71 87 0.0 0.0 0.00 0.00 0.00 83 1012.2
20260906104533 72 87 0.0 0.0 0.00 0.00 0.00 83 1012.0
20260906103020 72 87 0.0 0.0 0.00 0.00 0.00 84 1012.1
20260906101520 71 87 0.0 0.0 0.00 0.00 0.00 84 1011.9
20260906100019 71 87 0.0 0.0 0.00 0.00 0.00 84 1011.9
20260906094534 72 87 0.0 0.0 0.00 0.00 0.00 84 1011.9
20260906093030 72 87 0.0 0.0 0.00 0.00 0.00 84 1011.9
20260906091517 72 87 0.0 0.0 0.00 0.00 0.00 84 1011.8
20260906090015 72 87 0.0 0.0 0.00 0.00 0.00 84 1011.9
20260906084513 72 87 0.0 1.7 0.00 0.00 0.00 84 1011.8
20260906083016 72 87 0.0 0.9 0.00 0.00 0.00 84 1011.5
20260906081511 73 87 1.7 2.6 0.00 0.00 0.00 84 1011.3
20260906080009 73 87 0.0 0.0 0.00 0.00 0.00 84 1011.3
20260906074509 73 87 0.0 0.0 0.00 0.00 0.00 84 1011.3
20260906073008 73 87 0.0 0.0 0.00 0.00 0.00 84 1011.2
20260906071507 73 87 0.0 0.9 0.00 0.00 0.00 84 1011.4
20260906070005 73 87 0.9 2.6 0.00 0.00 0.00 84 1011.5
20260906064504 73 85 0.0 0.9 0.00 0.00 0.00 84 1011.6
20260906063003 74 85 0.9 1.7 0.00 0.00 0.00 84 1011.7
20260906061503 74 84 0.0 0.9 0.00 0.00 0.00 83 1011.8
20260906060000 74 84 0.0 0.9 0.00 0.00 0.00 82 1011.6
20260906054602 74 83 0.0 0.0 0.00 0.00 0.00 82 1011.7
20260906053058 74 83 0.0 0.9 0.00 0.00 0.00 82 1011.8
20260906051605 75 83 0.0 0.9 0.00 0.00 0.00 81 1011.7
20260906050053 75 83 0.0 1.7 0.00 0.00 0.00 80 1011.6
20260906044552 76 83 0.0 0.9 0.00 0.00 0.00 78 1011.6
20260906043052 77 83 0.0 4.3 0.00 0.00 0.00 76 1011.6
20260906041555 78 144 0.9 1.7 0.00 0.00 0.00 75 1011.6
20260906040051 79 144 0.9 1.7 0.00 0.00 0.00 73 1011.5
20260906034554 79 144 0.0 0.0 0.00 0.00 0.00 72 1011.3
20260906033052 79 144 0.9 1.7 0.00 0.00 0.00 72 1011.2
20260906031550 79 144 0.0 1.7 0.00 0.00 0.00 72 1010.9
20260906030050 80 144 0.0 2.6 0.00 0.00 0.00 70 1010.6
20260906024601 80 144 0.0 2.6 0.00 0.00 0.00 70 1010.5
20260906023049 80 143 0.9 3.5 0.00 0.00 0.00 71 1010.3
20260906021549 81 146 0.9 3.5 0.00 0.00 0.00 70 1010.0
20260906020050 82 123 1.7 4.3 0.00 0.00 0.00 69 1009.9
20260906014600 81 119 1.7 3.5 0.00 0.00 0.00 70 1009.7
20260906013047 82 120 1.7 3.5 0.00 0.00 0.00 71 1009.6
20260906011547 83 123 1.7 3.5 0.00 0.00 0.00 69 1009.5
20260906010046 84 157 1.7 2.6 0.00 0.00 0.00 69 1009.5
20260906004546 85 160 1.7 2.6 0.00 0.00 0.00 68 1009.6
20260906003100 87 162 1.7 2.6 0.00 0.00 0.00 66 1009.6
20260906001545 89 164 1.7 2.6 0.00 0.00 0.00 65 1009.7
20260906000044 90 164 0.9 2.6 0.00 0.00 0.00 63 1009.7
20260905234544 91 166 1.7 3.5 0.00 0.00 0.00 59 1009.6
20260905233044 92 176 2.6 5.2 0.00 0.00 0.00 56 1009.4
20260905231544 93 166 3.5 7.8 0.00 0.00 0.00 53 1009.3
20260905230047 93 178 2.6 6.1 0.00 0.00 0.00 56 1009.3
20260905224547 94 186 1.7 6.1 0.00 0.00 0.00 56 1009.3
20260905223047 92 166 2.6 6.1 0.00 0.00 0.00 58 1009.4
20260905221547 92 177 2.6 4.3 0.00 0.00 0.00 58 1009.3
20260905220046 93 182 1.7 4.3 0.00 0.00 0.00 55 1009.4
20260905214544 95 162 1.7 6.1 0.00 0.00 0.00 51 1009.3
20260905213045 95 217 3.5 7.8 0.00 0.00 0.00 52 1009.4
20260905211544 97 235 2.6 6.1 0.00 0.00 0.00 49 1009.7
20260905210040 96 160 0.9 4.3 0.00 0.00 0.00 53 1010.0
20260905204543 95 157 2.6 5.2 0.00 0.00 0.00 54 1010.1
20260905203038 97 239 1.7 4.3 0.00 0.00 0.00 53 1010.4
20260905201543 97 255 1.7 6.1 0.00 0.00 0.00 47 1010.7
20260905200050 96 192 1.7 4.3 0.00 0.00 0.00 50 1010.8
20260905194544 96 171 1.7 7.0 0.00 0.00 0.00 54 1011.0
20260905193035 96 245 0.9 5.2 0.00 0.00 0.00 50 1011.1
20260905191533 96 212 3.5 7.0 0.00 0.00 0.00 53 1011.2
20260905190034 95 283 1.7 4.3 0.00 0.00 0.00 52 1011.5
20260905184534 95 251 2.6 4.3 0.00 0.00 0.00 50 1011.8
20260905183032 95 246 2.6 6.1 0.00 0.00 0.00 51 1011.9
20260905181533 94 212 2.6 5.2 0.00 0.00 0.00 55 1011.9
20260905180023 94 209 1.7 5.2 0.00 0.00 0.00 57 1012.0